User: anonymous   Login
Location: Oshawa
(43.9000°N, 78.8670°W)
Time: 04:19:16
(UTC-04:00)
Language:

Cosmos 1408 Rocket - Orbit

View from above orbital plane
View from above orbital plane
View from above satellite
View from above satellite

Ground track
Ground track

The orbit data is extracted from the following two-line orbital elements,

1 13553U 82092B   16273.10097543  .00000166  00000-0  16937-4 0  9999
2 13553  82.5665 117.3331 0021277 183.4863 293.0997 14.84079384838312
Epoch (UTC): 29 September 2016 02:25:24
Eccentricity: 0.0021277
inclination: 82.5665°
perigee height: 601 km
apogee height: 631 km
right ascension of ascending node: 117.3331°
argument of perigee: 183.4863°
revolutions per day: 14.84079384
mean anomaly at epoch: 293.0997°
orbit number at epoch: 83831

The dashed part of the orbit path shows where the satellite is in the earth's shadow,  

DLR